Home   Weather   Bristol   Past weeks
Flag for United Kingdom

Past Weather in Bristol, England, United Kingdom — Yesterday and Last 2 Weeks

Now
41 °F

Quite cool.


Feels Like: 39 °F
Forecast: 53 / 40 °F
Wind: 3 mph from North

Location: Bristol / Lulsgate

Current Time: Mar 25, 2019 at 10:51:24 pm

Latest Report: Mar 25, 2019 at 10:20 pm


Visibility: N/A

Pressure: 30.57 "Hg

Humidity: 81%

Dew Point: 36 °F

Location of BristolLocation

Past Weather in Bristol — Graph

°F

Bristol Temperature Yesterday

Maximum temperature yesterday: 52 °F (at 11:20 am)
Minimum temperature yesterday: 39 °F (at 5:20 am)
Average temperature yesterday: 46 °F

High & Low Weather Summary for the Past Weeks

 TemperatureHumidityPressure
High54 °F (Mar 19, 3:20 pm)100% (Mar 12, 9:50 am)30.57 "Hg (Mar 12, 9:50 am)
Low36 °F (Mar 10, 9:50 pm)47% (Mar 25, 1:20 pm)29.39 "Hg (Mar 16, 5:20 pm)
Average46 °F83%30.12 "Hg
* Reported Mar 10 9:20 pm — Mar 25 9:50 pm, Bristol. Weather by CustomWeather, © 2019

Note: Actual official high and low records may vary slightly from our data, if they occured in-between our weather recording intervals... More about our weather records

Advertising

Bristol Weather History for the Previous 24 Hours

Scroll right to see more
 ConditionsComfort  
Time TempWeatherWind HumidityBarometerVisibility
9:50 pm
Mon, Mar 25
43 °FQuite cool.6 mph81%30.57 "HgN/A
9:20 pm41 °FQuite cool.7 mph81%30.57 "HgN/A
8:50 pm43 °FQuite cool.7 mph76%30.57 "HgN/A
8:20 pm43 °FQuite cool.6 mph71%30.57 "HgN/A
7:50 pm43 °FQuite cool.6 mph66%30.54 "HgN/A
7:20 pm43 °FQuite cool.7 mph66%30.54 "HgN/A
6:50 pm45 °FQuite cool.7 mph61%30.54 "HgN/A
6:20 pm45 °FQuite cool.8 mph61%30.51 "HgN/A
5:50 pm46 °FCool.8 mph62%30.51 "HgN/A
5:20 pm48 °FCool.8 mph58%30.51 "HgN/A
4:50 pm50 °FCool.9 mph58%30.51 "HgN/A
4:20 pm52 °FCool.10 mph47%30.51 "HgN/A
3:50 pm52 °FCool.9 mph50%30.51 "HgN/A
3:20 pm52 °FCool.8 mph50%30.51 "HgN/A
2:50 pm54 °FCool.8 mph47%30.51 "HgN/A
2:20 pm54 °FCool.12 mph47%30.51 "HgN/A
1:50 pm52 °FCool.8 mph50%30.51 "HgN/A
1:20 pm52 °FCool.9 mph47%30.51 "HgN/A
12:50 pm52 °FCool.9 mph50%30.51 "HgN/A
11:50 am50 °FPassing clouds.7 mph54%30.54 "HgN/A
11:20 am50 °FCool.12 mph54%30.54 "HgN/A
10:50 am50 °FCool.13 mph50%30.51 "HgN/A
10:20 am48 °FCool.13 mph54%30.54 "HgN/A
9:50 am46 °FCool.12 mph57%30.51 "HgN/A
9:20 am46 °FCool.12 mph57%30.51 "HgN/A
8:50 am46 °FCool.13 mph57%30.51 "HgN/A
8:20 am45 °FQuite cool.12 mph66%30.51 "HgN/A
7:50 am45 °FQuite cool.12 mph66%30.48 "HgN/A
7:20 am43 °FQuite cool.8 mph71%30.48 "HgN/A
6:50 am43 °FScattered clouds.7 mph71%30.48 "HgN/A
6:20 am43 °FPassing clouds.9 mph76%30.45 "HgN/A
5:50 am43 °FPassing clouds.7 mph76%30.45 "HgN/A
5:20 am45 °FMostly cloudy.10 mph71%30.45 "HgN/A
4:50 am45 °FOvercast.10 mph71%30.45 "HgN/A
4:20 am45 °FPassing clouds.7 mph76%30.42 "HgN/A
3:50 am45 °FMostly cloudy.9 mph76%30.42 "HgN/A
3:20 am45 °FPassing clouds.6 mph81%30.42 "HgN/A
2:50 am45 °FMostly cloudy.13 mph81%30.42 "HgN/A
2:20 am43 °FPartly cloudy.16 mph87%30.42 "HgN/A
1:50 am43 °FPassing clouds.16 mph87%30.42 "HgN/A
1:20 am43 °FPassing clouds.15 mph87%30.42 "HgN/A
12:50 am43 °FPassing clouds.17 mph87%30.42 "HgN/A
12:20 am43 °FPassing clouds.15 mph87%30.42 "HgN/A
11:50 pm
Sun, Mar 24
43 °FPassing clouds.17 mph87%30.42 "HgN/A
11:20 pm43 °FQuite cool.16 mph87%30.42 "HgN/A
10:50 pm43 °FPassing clouds.17 mph87%30.42 "HgN/A
10:20 pm43 °FQuite cool.18 mph81%30.42 "HgN/A
Weather by CustomWeather, © 2019

See weather overview